Weather History for Philadelphia Wings Airport, PA

Change the Weather History Date:

Thursday, February 23, 2012

  Actual Average (KPNE) Record (KPNE)
Temperature  
Mean Temperature 52 °F -  
Max Temperature 60 °F 43 °F 61 °F (2012)
Min Temperature 44 °F 27 °F 12 °F (1999)
Degree Days  
Heating Degree Days 13    
Growing Degree Days 2 (Base 50)    
Moisture  
Dew Point 34 °F    
Average Humidity 50    
Maximum Humidity 66    
Minimum Humidity 27    
Precipitation  
Precipitation 0.00 in - - ()
Sea Level Pressure  
Sea Level Pressure 29.54 in    
Wind  
Wind Speed 7 mph (WSW)    
Max Wind Speed 15 mph    
Max Gust Speed 26 mph    
Visibility 10 miles    
Events      
Averages and records for this station are not official NWS values.
T = Trace of Precipitation, MM = Missing Value Source: NWS Daily Summary

Daily Weather History Graph

Daily Weather History Graph

Search for Another Location

Airport:

Trip Planner

Search our weather history database for the weather conditions in past years. The results will help you decide how hot, cold, wet, or windy it might be!

Date:

Astronomy

Feb. 23, 2012 Rise Set
Actual Time 6:44 AM EST 5:45 PM EST
Civil Twilight 6:16 AM EST 6:12 PM EST
Nautical Twilight 5:45 AM EST 6:44 PM EST
Astronomical Twilight 5:13 AM EST 7:15 PM EST
Moon 7:09 AM EST (2/23) 7:49 PM EST (2/23)
Length of Visible Light 11h 56m
Length of Day
11h 01m
Waxing Crescent, 3% of the Moon is Illuminated
Feb 23
Waxing Crescent
Feb 29
First Quarter
Mar 8
Full
Mar 14
Last Quarter
Mar 22
New

Hourly Weather History & Observations

Time (EST) Temp. Windchill Dew Point Humidity Pressure Visibility Wind Dir Wind Speed Gust Speed Precip Events Conditions
12:15 AM 51.8 °F - 37.4 °F 58% 29.44 in 10.0 mi South 6.9 mph - N/A   Clear
12:35 AM 50.0 °F - 37.4 °F 62% 29.44 in 10.0 mi South 6.9 mph - N/A   Clear
1:15 AM 50.0 °F - 37.4 °F 62% 29.43 in 10.0 mi South 5.8 mph - N/A   Clear
1:35 AM 50.0 °F - 37.4 °F 62% 29.42 in 10.0 mi SSW 4.6 mph - N/A   Clear
1:55 AM 50.0 °F - 39.2 °F 66% 29.42 in 10.0 mi SSW 4.6 mph - N/A   Clear
2:15 AM 50.0 °F - 39.2 °F 66% 29.42 in 10.0 mi SSW 4.6 mph - N/A   Clear
2:35 AM 50.0 °F - 37.4 °F 62% 29.41 in 10.0 mi Calm Calm - N/A   Clear
2:55 AM 50.0 °F - 39.2 °F 66% 29.41 in 10.0 mi SW 3.5 mph - N/A   Clear
3:15 AM 50.0 °F - 39.2 °F 66% 29.40 in 10.0 mi SW 3.5 mph - N/A   Clear
3:35 AM 50.0 °F - 37.4 °F 62% 29.40 in 10.0 mi SW 5.8 mph - N/A   Clear
3:55 AM 50.0 °F - 37.4 °F 62% 29.39 in 10.0 mi SW 5.8 mph - N/A   Clear
4:15 AM 50.0 °F - 37.4 °F 62% 29.40 in 10.0 mi SW 6.9 mph - N/A   Scattered Clouds
4:35 AM 50.0 °F - 37.4 °F 62% 29.40 in 10.0 mi SW 6.9 mph - N/A   Scattered Clouds
4:55 AM 50.0 °F - 37.4 °F 62% 29.40 in 10.0 mi SW 5.8 mph - N/A   Mostly Cloudy
5:15 AM 50.0 °F - 37.4 °F 62% 29.41 in 10.0 mi SW 5.8 mph - N/A   Scattered Clouds
5:35 AM 48.2 °F - 37.4 °F 66% 29.42 in 10.0 mi SW 4.6 mph - N/A   Clear
5:55 AM 48.2 °F - 37.4 °F 66% 29.42 in 10.0 mi SW 4.6 mph - N/A   Clear
6:15 AM 50.0 °F - 37.4 °F 62% 29.43 in 10.0 mi WSW 5.8 mph - N/A   Clear
6:35 AM 50.0 °F - 37.4 °F 62% 29.43 in 10.0 mi WSW 6.9 mph - N/A   Clear
6:55 AM 48.2 °F - 37.4 °F 66% 29.44 in 10.0 mi WSW 4.6 mph - N/A   Clear
7:15 AM 50.0 °F - 37.4 °F 62% 29.45 in 10.0 mi WSW 8.1 mph - N/A   Scattered Clouds
7:35 AM 50.0 °F - 37.4 °F 62% 29.48 in 10.0 mi WSW 8.1 mph 16.1 mph N/A   Scattered Clouds
7:55 AM 51.8 °F - 37.4 °F 58% 29.48 in 10.0 mi WSW 10.4 mph - N/A   Clear
8:15 AM 53.6 °F - 39.2 °F 58% 29.50 in 10.0 mi WSW 10.4 mph - N/A   Clear
8:35 AM 51.8 °F - 37.4 °F 58% 29.51 in 10.0 mi WSW 9.2 mph - N/A   Scattered Clouds
8:55 AM 53.6 °F - 39.2 °F 58% 29.52 in 10.0 mi WSW 10.4 mph 16.1 mph N/A   Scattered Clouds
9:15 AM 55.4 °F - 39.2 °F 54% 29.53 in 10.0 mi WSW 12.7 mph - N/A   Clear
9:35 AM 55.4 °F - 37.4 °F 51% 29.53 in 10.0 mi WSW 12.7 mph 18.4 mph N/A   Scattered Clouds
9:55 AM 55.4 °F - 37.4 °F 51% 29.54 in 10.0 mi West 11.5 mph 17.3 mph N/A   Mostly Cloudy
10:15 AM 55.4 °F - 37.4 °F 51% 29.54 in 10.0 mi West 13.8 mph 19.6 mph N/A   Mostly Cloudy
10:35 AM 57.2 °F - 35.6 °F 44% 29.54 in 10.0 mi WSW 9.2 mph 18.4 mph N/A   Scattered Clouds
10:55 AM 57.2 °F - 35.6 °F 44% 29.54 in 10.0 mi West 12.7 mph 23.0 mph N/A   Scattered Clouds
11:15 AM 59.0 °F - 35.6 °F 42% 29.54 in 10.0 mi West 15.0 mph 23.0 mph N/A   Scattered Clouds
11:35 AM 59.0 °F - 35.6 °F 42% 29.54 in 10.0 mi West 15.0 mph 18.4 mph N/A   Scattered Clouds
11:55 AM 59.0 °F - 33.8 °F 39% 29.55 in 10.0 mi West 9.2 mph 24.2 mph N/A   Scattered Clouds
12:15 PM 59.0 °F - 32.0 °F 36% 29.54 in 10.0 mi West 15.0 mph 26.5 mph N/A   Scattered Clouds
12:35 PM 60.8 °F - 32.0 °F 34% 29.54 in 10.0 mi West 12.7 mph 21.9 mph N/A   Mostly Cloudy
12:55 PM 60.8 °F - 32.0 °F 34% 29.54 in 10.0 mi West 11.5 mph 20.7 mph N/A   Mostly Cloudy
1:15 PM 60.8 °F - 30.2 °F 31% 29.54 in 10.0 mi West 15.0 mph 25.3 mph N/A   Scattered Clouds
1:35 PM 60.8 °F - 26.6 °F 27% 29.54 in 10.0 mi West 12.7 mph 25.3 mph N/A   Scattered Clouds
1:55 PM 60.8 °F - 28.4 °F 29% 29.54 in 10.0 mi West 9.2 mph 24.2 mph N/A   Clear
2:15 PM 60.8 °F - 28.4 °F 29% 29.56 in 10.0 mi WNW 10.4 mph 17.3 mph N/A   Clear
2:35 PM 60.8 °F - 26.6 °F 27% 29.57 in 10.0 mi WNW 15.0 mph 20.7 mph N/A   Clear
2:55 PM 60.8 °F - 26.6 °F 27% 29.57 in 10.0 mi WNW 11.5 mph 17.3 mph N/A   Clear
3:15 PM 59.0 °F - 26.6 °F 29% 29.59 in 10.0 mi West 9.2 mph 18.4 mph N/A   Clear
3:35 PM 59.0 °F - 26.6 °F 29% 29.61 in 10.0 mi NW 9.2 mph 17.3 mph N/A   Clear
3:55 PM 59.0 °F - 26.6 °F 29% 29.63 in 10.0 mi WNW 5.8 mph - N/A   Clear
4:15 PM 59.0 °F - 26.6 °F 29% 29.64 in 10.0 mi WNW 6.9 mph - N/A   Clear
4:35 PM 59.0 °F - 26.6 °F 29% 29.65 in 10.0 mi WNW 9.2 mph - N/A   Clear
4:55 PM 57.2 °F - 26.6 °F 31% 29.65 in 10.0 mi WNW 9.2 mph - N/A   Clear
5:15 PM 55.4 °F - 26.6 °F 33% 29.65 in 10.0 mi WNW 5.8 mph - N/A   Clear
5:35 PM 55.4 °F - 26.6 °F 33% 29.65 in 10.0 mi NNW 3.5 mph - N/A   Clear
5:55 PM 53.6 °F - 26.6 °F 35% 29.66 in 10.0 mi Calm Calm - N/A   Clear
6:15 PM 51.8 °F - 28.4 °F 41% 29.66 in 10.0 mi Calm Calm - N/A   Clear
6:35 PM 50.0 °F - 28.4 °F 43% 29.66 in 10.0 mi Calm Calm - N/A   Clear
6:55 PM 50.0 °F - 30.2 °F 47% 29.66 in 10.0 mi Calm Calm - N/A   Clear
7:15 PM 46.4 °F - 32.0 °F 57% 29.67 in 10.0 mi Calm Calm - N/A   Clear
7:35 PM 48.2 °F - 32.0 °F 54% 29.69 in 10.0 mi Calm Calm - N/A   Clear
7:55 PM 46.4 °F - 32.0 °F 57% 29.68 in 10.0 mi Calm Calm - N/A   Clear
8:15 PM 48.2 °F - 32.0 °F 54% 29.70 in 10.0 mi Calm Calm - N/A   Clear
8:35 PM 46.4 °F - 33.8 °F 62% 29.71 in 10.0 mi Calm Calm - N/A   Scattered Clouds
8:55 PM 46.4 °F - 33.8 °F 62% 29.72 in 10.0 mi Calm Calm - N/A   Scattered Clouds
9:15 PM 44.6 °F - 33.8 °F 66% 29.72 in 10.0 mi Calm Calm - N/A   Clear
9:35 PM 44.6 °F - 33.8 °F 66% 29.72 in 10.0 mi Calm Calm - N/A   Scattered Clouds
9:55 PM 46.4 °F - 32.0 °F 57% 29.71 in 10.0 mi Calm Calm - N/A   Mostly Cloudy
10:15 PM 44.6 °F 42.2 °F 33.8 °F 66% 29.72 in 10.0 mi ENE 4.6 mph - N/A   Mostly Cloudy
10:35 PM 46.4 °F 44.3 °F 32.0 °F 57% 29.71 in 10.0 mi ENE 4.6 mph - N/A   Mostly Cloudy
10:55 PM 50.0 °F - 32.0 °F 50% 29.71 in 10.0 mi East 5.8 mph - N/A   Mostly Cloudy
11:15 PM 50.0 °F - 28.4 °F 43% 29.70 in 10.0 mi East 8.1 mph - N/A   Overcast
11:35 PM 50.0 °F - 28.4 °F 43% 29.67 in 10.0 mi East 11.5 mph 17.3 mph N/A   Mostly Cloudy
11:55 PM 50.0 °F - 32.0 °F 50% 29.67 in 10.0 mi East 10.4 mph 18.4 mph N/A   Mostly Cloudy